Koksijde, Belgium

3:27 AM CEST on July 27, 2017 (GMT +0200)
Koksijde Air Base

Weather History for EBFN - May, 2013

Change the Weather History Date:

Wednesday, May 15, 2013

  Actual Average Record
Temperature  
Mean Temperature 51 °F -  
Max Temperature 58 °F 60 °F 77 °F (1998)
Min Temperature 44 °F 51 °F 37 °F (2014)
Degree Days  
Heating Degree Days 14    
Growing Degree Days 1 (Base 50)    
Moisture  
Dew Point 41 °F    
Average Humidity 67    
Maximum Humidity 94    
Minimum Humidity 37    
Precipitation  
Precipitation 0.01 in - - ()
Sea Level Pressure  
Sea Level Pressure 29.48 in    
Wind  
Wind Speed 15 mph ()    
Max Wind Speed 26 mph    
Max Gust Speed -    
Visibility 7.5 miles    
Events Rain    
Averages and records for this station are not official NWS values.
T = Trace of Precipitation, MM = Missing Value Source: Averaged Metar Reports

Daily Weather History Graph

Daily Weather History Graph

Search for Another Location

Airport or City:

Trip Planner

Search our weather history database for the weather conditions in past years. The results will help you decide how hot, cold, wet, or windy it might be!

Date:

Astronomy

May. 15, 2013 Rise Set
Actual Time 5:59 AM CEST 9:33 PM CEST
Civil Twilight 5:18 AM CEST 10:14 PM CEST
Nautical Twilight 4:23 AM CEST 11:10 PM CEST
Astronomical Twilight 3:03 AM CEST 12:31 AM CEST
Moon 10:25 AM CEST (5/15) 1:06 AM CEST (5/15)
Length of Visible Light 16h 55m
Length of Day
15h 34m
Waxing Crescent, 24% of the Moon is Illuminated
May 15
Waxing Crescent
May 18
First Quarter
May 25
Full
May 31
Last Quarter
Jun 8
New

Hourly Weather History & Observations

Time (CEST) Temp. Windchill Dew Point Humidity Pressure Visibility Wind Dir Wind Speed Gust Speed Precip Events Conditions
12:25 AM 50.0 °F - 48.2 °F 94% 29.44 in 6.2 mi SE 13.8 mph - N/A   Mostly Cloudy
12:55 AM 51.8 °F - 46.4 °F 82% 29.44 in 6.2 mi SSE 15.0 mph - N/A Rain Light Rain
1:25 AM 51.8 °F - 48.2 °F 88% 29.42 in 6.2 mi SSE 16.1 mph - N/A Rain Light Rain
1:53 AM 51.8 °F - 48.2 °F 88% 29.42 in 6.2 mi SSE 16.1 mph - N/A Rain Light Rain
2:25 AM 51.8 °F - 48.2 °F 88% 29.42 in 6.2 mi South 16.1 mph - N/A Rain Light Rain
2:55 AM 51.8 °F - 46.4 °F 82% 29.39 in 6.2 mi South 18.4 mph - N/A   Mostly Cloudy
3:25 AM 51.8 °F - 46.4 °F 82% 29.39 in 6.2 mi South 17.3 mph - N/A Rain Light Rain
3:44 AM 48.2 °F - 42.8 °F 82% 29.42 in 6.2 mi SW 21.9 mph - N/A Rain Light Rain
3:55 AM 48.2 °F - 42.8 °F 82% 29.42 in 6.2 mi SW 18.4 mph - N/A Rain Light Rain
4:25 AM 46.4 °F 40.1 °F 42.8 °F 87% 29.42 in 6.2 mi SSW 15.0 mph - N/A   Mostly Cloudy
4:55 AM 46.4 °F 41.5 °F 42.8 °F 87% 29.39 in 6.2 mi SSW 10.4 mph - N/A   Mostly Cloudy
5:00 AM 47 °F - 43 °F 80% 29.41 in 19 mi SSW 11.2 mph - - Rain Light Rain
5:25 AM 46.4 °F 41.1 °F 42.8 °F 87% 29.39 in 6.2 mi SSW 11.5 mph - N/A   Scattered Clouds
5:55 AM 46.4 °F 40.4 °F 41.0 °F 81% 29.42 in 6.2 mi SSW 13.8 mph - N/A   Scattered Clouds
6:25 AM 46.4 °F 40.4 °F 41.0 °F 81% 29.42 in 6.2 mi South 13.8 mph - N/A   Mostly Cloudy
6:55 AM 46.4 °F 40.1 °F 41.0 °F 81% 29.42 in 6.2 mi South 15.0 mph - N/A   Mostly Cloudy
7:25 AM - - - N/A% 29.42 in 6.2 mi South 16.1 mph - N/A   Mostly Cloudy
7:55 AM 46.4 °F 39.8 °F 41.0 °F 81% 29.42 in 6.2 mi South 16.1 mph - N/A   Mostly Cloudy
8:00 AM 47 °F - 41 °F 72% 29.44 in 19 mi South 15.7 mph - -   Scattered Clouds
8:25 AM 48.2 °F - 41.0 °F 76% 29.42 in 6.2 mi South 19.6 mph - N/A   Mostly Cloudy
8:55 AM 48.2 °F - 41.0 °F 76% 29.42 in 6.2 mi SSW 18.4 mph - N/A   Mostly Cloudy
9:25 AM 48.2 °F - 41.0 °F 76% 29.44 in 6.2 mi SSW 20.7 mph - N/A   Mostly Cloudy
9:55 AM 48.2 °F - 41.0 °F 76% 29.44 in 6.2 mi SSW 20.7 mph - N/A   Mostly Cloudy
10:25 AM 50.0 °F - 41.0 °F 71% 29.44 in 6.2 mi SSW 20.7 mph - N/A   Mostly Cloudy
10:55 AM 51.8 °F - 42.8 °F 71% 29.44 in 6.2 mi SSW 20.7 mph - N/A   Mostly Cloudy
11:00 AM 52 °F - 42 °F 60% 29.47 in 19 mi SSW 20.1 mph - -   Partly Cloudy
11:25 AM 53.6 °F - 42.8 °F 67% 29.44 in 6.2 mi SSW 20.7 mph - N/A   Scattered Clouds
11:55 AM 53.6 °F - 42.8 °F 67% 29.44 in 6.2 mi SW 20.7 mph - N/A   Scattered Clouds
11:56 AM 53.6 °F - 42.8 °F 67% 29.44 in 6.2 mi SW 20.7 mph - N/A   Scattered Clouds
12:25 PM 53.6 °F - 42.8 °F 67% 29.47 in 6.2 mi SW 20.7 mph - N/A   Scattered Clouds
12:55 PM 55.4 °F - 41.0 °F 58% 29.47 in 6.2 mi SSW 20.7 mph - N/A   Mostly Cloudy
1:25 PM 53.6 °F - 41.0 °F 62% 29.47 in 6.2 mi SSW 19.6 mph - N/A   Mostly Cloudy
1:55 PM 55.4 °F - 41.0 °F 58% 29.47 in 6.2 mi SSW 21.9 mph - N/A   Scattered Clouds
2:00 PM 56 °F - 42 °F 48% 29.49 in 17 mi SSW 22.4 mph - -   Mostly Cloudy
2:25 PM 57.2 °F - 39.2 °F 51% 29.47 in 6.2 mi SSW 24.2 mph - N/A   Scattered Clouds
2:55 PM 57.2 °F - 37.4 °F 48% 29.47 in 6.2 mi SSW 26.5 mph - N/A   Scattered Clouds
3:25 PM 57.2 °F - 39.2 °F 51% 29.50 in 6.2 mi SW 24.2 mph - N/A   Scattered Clouds
3:55 PM 57.2 °F - 39.2 °F 51% 29.50 in 6.2 mi WSW 23.0 mph - N/A   Scattered Clouds
4:25 PM 57.2 °F - 41.0 °F 55% 29.50 in 6.2 mi SW 23.0 mph - N/A   Scattered Clouds
4:55 PM 57.2 °F - 41.0 °F 55% 29.50 in 6.2 mi SW 21.9 mph - N/A   Scattered Clouds
5:00 PM 58 °F - 41 °F 41%  in 19 mi SW 22.4 mph - -   Partly Cloudy
5:25 PM 57.2 °F - 39.2 °F 51% 29.53 in 6.2 mi SW 19.6 mph - N/A   Scattered Clouds
5:37 PM 57.2 °F - 37.4 °F 48% 29.53 in 6.2 mi SW 21.9 mph - N/A   Scattered Clouds
5:55 PM 57.2 °F - 39.2 °F 51% 29.53 in 6.2 mi SW 21.9 mph - N/A   Scattered Clouds
6:25 PM 57.2 °F - 37.4 °F 48% 29.53 in 6.2 mi SW 20.7 mph - N/A   Scattered Clouds
6:55 PM 57.2 °F - 35.6 °F 44% 29.53 in 6.2 mi WSW 19.6 mph - N/A   Partly Cloudy
7:25 PM 55.4 °F - 35.6 °F 47% 29.56 in 6.2 mi WSW 18.4 mph - N/A   Partly Cloudy
7:55 PM 55.4 °F - 35.6 °F 47% 29.56 in 6.2 mi WSW 13.8 mph - N/A   Partly Cloudy
8:00 PM 55 °F - 36 °F 37% 29.57 in 19 mi WSW 13.4 mph - -   Scattered Clouds
8:25 PM 53.6 °F - 37.4 °F 54% 29.56 in 6.2 mi WSW 12.7 mph - N/A   Partly Cloudy
8:55 PM 51.8 °F - 37.4 °F 58% 29.59 in 6.2 mi WSW 8.1 mph - N/A   Partly Cloudy
9:25 PM 51.8 °F - 37.4 °F 58% 29.59 in 6.2 mi West 5.8 mph - N/A   Scattered Clouds
9:55 PM 48.2 °F - 39.2 °F 71% 29.59 in 6.2 mi SW 5.8 mph - N/A   Mostly Cloudy
10:25 PM 48.2 °F - 37.4 °F 66% 29.59 in 6.2 mi Variable 1.2 mph - N/A   Mostly Cloudy
10:55 PM 48.2 °F - 37.4 °F 66% 29.59 in 6.2 mi Variable 1.2 mph - N/A   Mostly Cloudy
11:25 PM 44.6 °F 42.2 °F 37.4 °F 76% 29.59 in 6.2 mi SW 4.6 mph - N/A   Mostly Cloudy
11:55 PM 46.4 °F - 37.4 °F 71% 29.59 in 6.2 mi Calm Calm - N/A   Mostly Cloudy